Observations for Trim Patrick St
| Time | AQI | Temp °C | Hum % | Pres Pa | CO μg/m³ | H₂S μg/m³ | NO μg/m³ | NO₂ μg/m³ | O₃ μg/m³ | SO₂ μg/m³ | PM1 μg/m³ | PM2.5 μg/m³ | PM10 μg/m³ |
|---|---|---|---|---|---|---|---|---|---|---|---|---|---|
| Saturday 8 August 2026 | |||||||||||||
| 09:32 | 1 | 24.3 | 52 | 70,327 | 0.02 | 0 | 2.53 | 7.55 | 27.35 | 5.56 | 2 | 7.08 | 7.79 |
| 09:31 | 1 | 24.3 | 52 | 70,423 | 0.03 | 0 | 2.57 | 7.7 | 23.5 | 5.36 | 2.86 | 7.81 | 8.59 |
| 09:30 | 1 | 24.2 | 52 | 70,547 | 0.05 | 0 | 2.72 | 7.68 | 16.01 | 4.65 | 2.86 | 7.82 | 8.6 |
| 09:29 | 1 | 24.2 | 52 | 70,694 | 0.08 | 0 | 2.54 | 7.79 | 16.11 | 4.97 | 3.71 | 7.79 | 8.57 |
| 09:28 | 1 | 24.1 | 51 | 70,886 | 0.13 | 0 | 2.59 | 6.76 | 13.46 | 5.02 | 4.57 | 8.63 | 9.5 |
| 09:27 | 1 | 24.1 | 52 | 71,167 | 0.07 | 0 | 2.81 | 9.82 | 23.87 | 5.82 | 2.86 | 7.81 | 8.59 |
| 09:26 | 1 | 24 | 52 | 71,422 | 0.08 | 0 | 2.71 | 12.22 | 24.67 | 4.58 | 2.86 | 7.04 | 7.74 |
| 09:25 | 1 | 23.9 | 54 | 71,609 | 0.1 | 0 | 2.84 | 10.68 | 3.95 | 4.49 | 3.71 | 8.45 | 9.3 |
| 09:24 | 1 | 23.8 | 54 | 71,898 | 0.09 | 0 | 3.08 | 8.48 | 19.43 | 5.62 | 3.71 | 9.19 | 10.11 |
| 09:23 | 1 | 23.7 | 53 | 72,212 | 0.08 | 0 | 2.89 | 12.33 | 20.18 | 4.78 | 3.71 | 8.47 | 9.32 |
| 09:22 | 1 | 23.5 | 54 | 72,426 | 0.1 | 0 | 2.86 | 10.42 | 12.71 | 4.49 | 3.71 | 8.45 | 9.3 |
| 09:21 | 1 | 23.4 | 54 | 72,683 | 0.09 | 0 | 3.07 | 11.67 | 16.96 | 4.78 | 2.86 | 7.66 | 8.43 |
| 09:20 | 1 | 23.3 | 55 | 72,937 | 0.07 | 0 | 3.53 | 12.28 | 29.18 | 4.25 | 2.86 | 7.61 | 8.37 |
| 09:19 | 1 | 23.2 | 54 | 73,237 | 0.08 | 0 | 3.3 | 7.53 | 14.74 | 4.71 | 3.71 | 9.18 | 10.1 |
| 09:18 | 1 | 23.1 | 55 | 73,526 | 0.09 | 0 | 3.37 | 12.67 | 21.98 | 4.75 | 5.43 | 9.87 | 10.86 |
| 09:17 | 1 | 23 | 55 | 73,669 | 0.09 | 0 | 3.45 | 12.63 | 11.42 | 5.77 | 2.86 | 7.61 | 8.37 |
| 09:16 | 1 | 22.9 | 56 | 73,862 | 0.07 | 0 | 3.93 | 12.46 | 22.98 | 4.42 | 2.86 | 8.28 | 9.11 |
| 09:15 | 1 | 22.8 | 56 | 73,988 | 0.09 | 0 | 3.4 | 10.21 | 18.98 | 4.05 | 2.86 | 7.56 | 8.31 |
| 09:14 | 1 | 22.7 | 56 | 74,131 | 0.08 | 0 | 3.38 | 11.8 | 21.82 | 4.7 | 2.86 | 8.31 | 9.14 |
| 09:13 | 1 | 22.6 | 56 | 74,247 | 0.09 | 0 | 3.31 | 13.45 | 10.23 | 5.89 | 2.86 | 7.55 | 8.3 |